Location: Olda
(45.8833°N, 9.5500°E)
Time: 17:16:51
(UTC+00:00)

USA 307 - Pass Details

Date: 03 March 2021
Orbit: 567 x 577 km, 54.0° (Epoch: 10 April)

Event Time Altitude Azimuth Distance (km) Brightness Sun altitude
Rises 18:16:20 0° 281° (WNW) 2,787 8.4 -12.1°
Reaches altitude 10° 18:18:51 10° 294° (WNW) 1,887 6.8 -12.5°
Maximum altitude 18:22:34 28° 354° (N) 1,096 4.4 -13.2°
Enters shadow 18:25:45 13° 50° (NE) 1,705 4.9 -13.7°
